User: anonymous   Login
Location: Vancouver
(49.2500°N, 123.1330°W)
Time: 10:09:09
(UTC-08:00)
Language:

CZ-2C R/B - Orbit

View from above orbital plane
View from above orbital plane
View from above satellite
View from above satellite

Ground track
Ground track

The orbit data is extracted from the following two-line orbital elements,

1 28480U 04046B   16343.19892521  .00000010  00000-0  18881-4 0  9991
2 28480  98.1946  85.7423 0143158  68.4223 350.7777 14.25619333627027
Epoch (UTC): 08 December 2016 04:46:27
Eccentricity: 0.0143158
inclination: 98.1946°
perigee height: 703 km
apogee height: 909 km
right ascension of ascending node: 85.7423°
argument of perigee: 68.4223°
revolutions per day: 14.25619333
mean anomaly at epoch: 350.7777°
orbit number at epoch: 62702

The dashed part of the orbit path shows where the satellite is in the earth's shadow,  

DLR